Location: Unspecified
(35.7250°N, 0.0000°E)
Time: 19:20:52
(UTC+00:00)

Tiros 1 - Pass Details

Date: 02 July 2019
Orbit: 630 x 664 km, 48.4° (Epoch: 18 July)

Event Time Altitude Azimuth Distance (km) Brightness Sun altitude
Rises 21:20:40 0° 288° (WNW) 2,972 11.5 -19.7°
Reaches altitude 10° 21:23:40 10° 307° (NW) 2,054 10.8 -20.1°
Maximum altitude 21:26:59 18° 351° (N) 1,563 9.8 -20.5°
Drops below altitude 10° 21:30:16 10° 36° (NE) 2,040 9.9 -20.9°
Sets 21:33:14 0° 55° (NE) 2,943 10.5 -21.3°
